Location: Czekanka
(50.4925°N, 19.2643°E)
Time: 13:06:05
(UTC+00:00)

NOSS 3-2 (C) - Pass Details

Date: 15 June 2024
Orbit: 707 x 1504 km, 63.4° (Epoch: 11 July)

Event Time Altitude Azimuth Distance (km) Brightness Sun altitude
Exits shadow 01:05:09 13° 215° (SW) 2,144 4.6 -9.8°
Maximum altitude 01:09:58 79° 130° (SE) 881 3.3 -9.4°
Drops below altitude 10° 01:16:19 10° 45° (NE) 2,770 7.5 -8.8°
Sets 01:19:11 0° 45° (NE) 3,852 8.8 -8.6°
